Time,TemperatureF,DewpointF,PressureIn,WindDirection,WindDirectionDegrees,WindSpeedMPH,WindSpeedGustMPH,Humidity,HourlyPrecipIn,Conditions,Clouds,dailyrainin,SolarRadiationWatts/m^2,SoftwareType,DateUTC
2013-12-18 00:42:00,-6.0,-12.0,-100.00,WSW,240,1.0,7.0,74,-99.99,,,0.00,0.000000,,2013-12-18 06:42:00,
2013-12-18 00:53:00,-6.0,-12.0,-100.00,WSW,240,1.0,7.0,74,-99.99,,,0.00,0.000000,,2013-12-18 06:53:00,
2013-12-18 01:02:00,-6.0,-12.0,-100.00,WSW,240,1.0,7.0,74,-99.99,,,0.00,0.000000,,2013-12-18 07:02:00,
2013-12-18 01:42:00,-11.0,-16.0,-100.00,North,-999,0.0,1.0,76,0.00,,,0.00,0.000000,,2013-12-18 07:42:00,
2013-12-18 01:53:00,-11.0,-16.0,-100.00,North,-999,0.0,1.0,76,0.00,,,0.00,0.000000,,2013-12-18 07:53:00,
2013-12-18 02:02:00,-11.0,-16.0,-100.00,North,-999,0.0,1.0,76,0.00,,,0.00,0.000000,,2013-12-18 08:02:00,
2013-12-18 02:42:00,-13.0,-19.0,-100.00,North,-999,0.0,0.0,72,0.00,,,0.00,0.000000,,2013-12-18 08:42:00,
2013-12-18 02:52:00,-13.0,-19.0,-100.00,North,-999,0.0,0.0,72,0.00,,,0.00,0.000000,,2013-12-18 08:52:00,
2013-12-18 03:02:00,-13.0,-19.0,-100.00,North,-999,0.0,0.0,72,0.00,,,0.00,0.000000,,2013-12-18 09:02:00,
2013-12-18 03:43:00,-12.0,-18.0,-100.00,SSE,155,1.0,6.0,74,0.00,,,0.00,0.000000,,2013-12-18 09:43:00,
2013-12-18 03:53:00,-12.0,-18.0,-100.00,SSE,155,1.0,6.0,74,0.00,,,0.00,0.000000,,2013-12-18 09:53:00,
2013-12-18 04:03:00,-12.0,-18.0,-100.00,SSE,155,1.0,6.0,74,0.00,,,0.00,0.000000,,2013-12-18 10:03:00,
2013-12-18 04:42:00,-14.0,-21.0,-100.00,SSE,151,3.0,5.0,69,0.00,,,-99.99,0.000000,,2013-12-18 10:42:00,
2013-12-18 04:52:00,-14.0,-21.0,-100.00,SSE,151,3.0,5.0,69,0.00,,,-99.99,0.000000,,2013-12-18 10:52:00,
2013-12-18 05:03:00,-14.0,-21.0,-100.00,SSE,151,3.0,5.0,69,0.00,,,-99.99,0.000000,,2013-12-18 11:03:00,
2013-12-18 05:42:00,-11.0,-17.0,-100.00,ESE,114,4.0,6.0,72,0.00,,,0.00,0.000000,,2013-12-18 11:42:00,
2013-12-18 05:53:00,-11.0,-17.0,-100.00,ESE,114,4.0,6.0,72,0.00,,,0.00,0.000000,,2013-12-18 11:53:00,
2013-12-18 06:02:00,-11.0,-17.0,-100.00,ESE,114,4.0,6.0,72,0.00,,,0.00,0.000000,,2013-12-18 12:02:00,
2013-12-18 06:42:00,-12.0,-18.0,-100.00,NE,53,2.0,5.0,74,0.00,,,0.00,0.000000,,2013-12-18 12:42:00,
2013-12-18 06:52:00,-12.0,-18.0,-100.00,NE,53,2.0,5.0,74,0.00,,,0.00,0.000000,,2013-12-18 12:52:00,
2013-12-18 07:01:00,-12.0,-18.0,-100.00,NE,53,2.0,5.0,74,0.00,,,0.00,0.000000,,2013-12-18 13:01:00,
2013-12-18 07:42:00,-6.0,-12.0,-100.00,ESE,118,5.0,7.0,74,0.00,,,0.00,0.000000,,2013-12-18 13:42:00,
2013-12-18 07:52:00,-6.0,-12.0,-100.00,ESE,118,5.0,7.0,74,0.00,,,0.00,0.000000,,2013-12-18 13:52:00,
2013-12-18 08:02:00,-6.0,-12.0,-100.00,ESE,118,5.0,7.0,74,0.00,,,0.00,0.000000,,2013-12-18 14:02:00,
2013-12-18 08:42:00,-4.0,-10.0,-100.00,SSE,157,7.0,9.0,73,0.00,,,0.00,1.000000,,2013-12-18 14:42:00,
2013-12-18 08:52:00,-4.0,-10.0,-100.00,SSE,157,7.0,9.0,73,0.00,,,0.00,1.000000,,2013-12-18 14:52:00,
2013-12-18 09:02:00,-4.0,-10.0,-100.00,SSE,157,7.0,9.0,73,0.00,,,0.00,1.000000,,2013-12-18 15:02:00,
2013-12-18 09:04:00,0.0,-6.0,-100.00,ESE,108,4.0,7.0,74,0.00,,,0.00,18.000000,,2013-12-18 15:04:00,
2013-12-18 09:44:00,0.0,-6.0,-100.00,ESE,108,4.0,7.0,74,0.00,,,0.00,18.000000,,2013-12-18 15:44:00,
2013-12-18 09:53:00,0.0,-6.0,-100.00,ESE,108,4.0,7.0,74,0.00,,,0.00,18.000000,,2013-12-18 15:53:00,
2013-12-18 10:42:00,4.0,-3.0,-100.00,East,99,3.0,5.0,72,0.00,,,0.00,73.000000,,2013-12-18 16:42:00,
2013-12-18 10:53:00,4.0,-3.0,-100.00,East,99,3.0,5.0,72,0.00,,,0.00,73.000000,,2013-12-18 16:53:00,
2013-12-18 11:02:00,4.0,-3.0,-100.00,East,99,3.0,5.0,72,0.00,,,0.00,73.000000,,2013-12-18 17:02:00,
2013-12-18 11:23:00,9.0,2.0,-100.00,ENE,74,4.0,7.0,71,0.00,,,0.00,118.000000,,2013-12-18 17:23:00,
2013-12-18 11:33:00,9.0,2.0,-100.00,ENE,74,4.0,7.0,71,0.00,,,0.00,118.000000,,2013-12-18 17:33:00,
2013-12-18 11:42:00,9.0,2.0,-100.00,ENE,74,4.0,7.0,71,0.00,,,0.00,118.000000,,2013-12-18 17:42:00,
2013-12-18 11:52:00,9.0,2.0,-100.00,ENE,74,4.0,7.0,71,0.00,,,0.00,118.000000,,2013-12-18 17:52:00,
2013-12-18 12:02:00,9.0,2.0,-100.00,ENE,74,4.0,7.0,71,0.00,,,0.00,118.000000,,2013-12-18 18:02:00,
2013-12-18 12:42:00,16.0,6.0,-100.00,ESE,120,7.0,11.0,65,0.00,,,0.00,322.000000,,2013-12-18 18:42:00,
2013-12-18 12:52:00,16.0,6.0,-100.00,ESE,120,7.0,11.0,65,0.00,,,0.00,322.000000,,2013-12-18 18:52:00,
2013-12-18 13:01:00,16.0,6.0,-100.00,ESE,120,7.0,11.0,65,0.00,,,0.00,322.000000,,2013-12-18 19:01:00,
2013-12-18 13:22:00,21.0,9.0,-100.00,SSE,149,9.0,15.0,59,0.00,,,0.00,341.000000,,2013-12-18 19:22:00,
2013-12-18 13:32:00,21.0,9.0,-100.00,SSE,149,9.0,15.0,59,0.00,,,0.00,341.000000,,2013-12-18 19:32:00,
2013-12-18 13:42:00,21.0,9.0,-100.00,SSE,149,9.0,15.0,59,0.00,,,0.00,341.000000,,2013-12-18 19:42:00,
2013-12-18 13:52:00,21.0,9.0,-100.00,SSE,149,9.0,15.0,59,0.00,,,0.00,341.000000,,2013-12-18 19:52:00,
2013-12-18 14:02:00,21.0,9.0,-100.00,SSE,149,9.0,15.0,59,0.00,,,0.00,341.000000,,2013-12-18 20:02:00,
2013-12-18 14:42:00,23.0,10.0,-100.00,South,176,9.0,16.0,58,0.00,,,0.00,291.000000,,2013-12-18 20:42:00,
2013-12-18 14:53:00,23.0,10.0,-100.00,South,176,9.0,16.0,58,0.00,,,0.00,291.000000,,2013-12-18 20:53:00,
2013-12-18 15:02:00,23.0,10.0,-100.00,South,176,9.0,16.0,58,0.00,,,0.00,291.000000,,2013-12-18 21:02:00,
2013-12-18 15:43:00,18.0,8.0,-100.00,SSE,149,9.0,16.0,65,0.00,,,0.00,135.000000,,2013-12-18 21:43:00,
2013-12-18 15:53:00,18.0,8.0,-100.00,SSE,149,9.0,16.0,65,0.00,,,0.00,135.000000,,2013-12-18 21:53:00,
2013-12-18 16:03:00,18.0,8.0,-100.00,SSE,149,9.0,16.0,65,0.00,,,0.00,135.000000,,2013-12-18 22:03:00,
2013-12-18 16:43:00,15.0,9.0,-100.00,SE,145,9.0,14.0,75,0.00,,,0.00,32.000000,,2013-12-18 22:43:00,
2013-12-18 16:53:00,15.0,9.0,-100.00,SE,145,9.0,14.0,75,0.00,,,0.00,32.000000,,2013-12-18 22:53:00,
2013-12-18 17:02:00,15.0,9.0,-100.00,SE,145,9.0,14.0,75,0.00,,,0.00,32.000000,,2013-12-18 23:02:00,
2013-12-18 17:42:00,13.0,8.0,-100.00,North,-999,0.0,11.0,80,0.00,,,0.00,2.000000,,2013-12-18 23:42:00,
2013-12-18 17:53:00,13.0,8.0,-100.00,North,-999,0.0,11.0,80,0.00,,,0.00,2.000000,,2013-12-18 23:53:00,
2013-12-18 18:02:00,13.0,8.0,-100.00,North,-999,0.0,11.0,80,0.00,,,0.00,2.000000,,2013-12-19 00:02:00,
2013-12-18 18:22:00,9.0,6.0,-100.00,SSE,160,4.0,5.0,86,0.00,,,0.00,0.000000,,2013-12-19 00:22:00,
2013-12-18 18:32:00,9.0,6.0,-100.00,SSE,160,4.0,5.0,86,0.00,,,0.00,0.000000,,2013-12-19 00:32:00,
2013-12-18 18:42:00,9.0,6.0,-100.00,SSE,160,4.0,5.0,86,0.00,,,0.00,0.000000,,2013-12-19 00:42:00,
2013-12-18 18:52:00,9.0,6.0,-100.00,SSE,160,4.0,5.0,86,0.00,,,0.00,0.000000,,2013-12-19 00:52:00,
2013-12-18 19:01:00,9.0,6.0,-100.00,SSE,160,4.0,5.0,86,0.00,,,0.00,0.000000,,2013-12-19 01:01:00,
2013-12-18 19:42:00,8.0,5.0,-100.00,ESE,123,1.0,5.0,86,0.00,,,-99.99,0.000000,,2013-12-19 01:42:00,
2013-12-18 19:52:00,8.0,5.0,-100.00,ESE,123,1.0,5.0,86,0.00,,,-99.99,0.000000,,2013-12-19 01:52:00,
2013-12-18 20:01:00,8.0,5.0,-100.00,ESE,123,1.0,5.0,86,0.00,,,-99.99,0.000000,,2013-12-19 02:01:00,
2013-12-18 20:52:00,4.0,0.0,-100.00,SSW,211,2.0,3.0,84,0.00,,,0.00,0.000000,,2013-12-19 02:52:00,
2013-12-18 21:02:00,4.0,0.0,-100.00,SSW,211,2.0,3.0,84,0.00,,,0.00,0.000000,,2013-12-19 03:02:00,
2013-12-18 21:43:00,3.0,-1.0,-100.00,SW,221,1.0,3.0,84,0.00,,,0.00,0.000000,,2013-12-19 03:43:00,
2013-12-18 21:54:00,3.0,-1.0,-100.00,SW,221,1.0,3.0,84,0.00,,,0.00,0.000000,,2013-12-19 03:54:00,
2013-12-18 22:03:00,3.0,-1.0,-100.00,SW,221,1.0,3.0,84,0.00,,,0.00,0.000000,,2013-12-19 04:03:00,
2013-12-18 22:43:00,6.0,2.0,-100.00,SW,215,3.0,4.0,83,0.00,,,0.00,0.000000,,2013-12-19 04:43:00,
2013-12-18 22:53:00,6.0,2.0,-100.00,SW,215,3.0,4.0,83,0.00,,,0.00,0.000000,,2013-12-19 04:53:00,
2013-12-18 23:02:00,6.0,2.0,-100.00,SW,215,3.0,4.0,83,0.00,,,0.00,0.000000,,2013-12-19 05:02:00,
2013-12-18 23:42:00,9.0,5.0,-100.00,West,280,4.0,6.0,85,0.00,,,-99.99,0.000000,,2013-12-19 05:42:00,
2013-12-18 23:52:00,9.0,5.0,-100.00,West,280,4.0,6.0,85,0.00,,,-99.99,0.000000,,2013-12-19 05:52:00,